Hourly Data Report for October 01, 2017

All times are specified in Local Standard Time (LST). Add 1 hour to adjust for Daylight Saving Time where and when it is observed.

TUKTOYAKTUK
NORTHWEST TERRITORIES

69°26'00.000" N
133°01'00.000" W
4.60 m
2203914
71985
ZUB

Download Data

Hourly Data (October 2017)
Hourly Data Report for October 1, 2017
Temp Definition
°C
Dew Point Temp Definition
°C
Rel Hum Definition
%
Wind Dir Definition
10's deg

Wind Spd Definition
km/h
Visibility Definition
km
Stn Press Definition
kPa
Hmdx Definition


Wind Chill Definition


Weather Definition


TIME
00:00 -1.7 -3.9 85 LegendMM LegendMM   101.44     LegendNANA
01:00 -1.2 -4.0 82 LegendMM LegendMM   101.42     LegendNANA
02:00 -1.0 -4.1 80 LegendMM LegendMM   101.41     LegendNANA
03:00 -1.1 -3.9 82 LegendMM LegendMM   101.40     LegendNANA
04:00 -1.1 -3.7 82 LegendMM LegendMM   101.35     LegendNANA
05:00 -0.4 -3.0 82 LegendMM LegendMM   101.37     LegendNANA
06:00 -0.3 -3.2 81 LegendMM LegendMM   101.38     LegendNANA
07:00 -0.2 -3.1 81 LegendMM LegendMM   101.36     LegendNANA
08:00 0.4 -1.5 87 LegendMM LegendMM   101.38     LegendNANA
09:00 2.0 -0.8 82 LegendMM LegendMM   101.42     LegendNANA
10:00 1.9 0.7 92 LegendMM LegendMM   101.45     LegendNANA
11:00 1.9 0.8 92 LegendMM LegendMM   101.53     LegendNANA
12:00 2.3 1.0 91 LegendMM LegendMM   101.60     LegendNANA
13:00 1.9 0.6 91 LegendMM LegendMM   101.69     LegendNANA
14:00 2.1 0.2 87 LegendMM LegendMM   101.79     LegendNANA
15:00 1.4 -1.1 83 LegendMM LegendMM   101.90     LegendNANA
16:00 2.1 -0.5 83 LegendMM LegendMM   101.98     LegendNANA
17:00 2.0 -0.6 83 LegendMM LegendMM   102.06     LegendNANA
18:00 1.7 -0.6 85 LegendMM LegendMM   102.15     LegendNANA
19:00 1.6 -0.7 85 LegendMM LegendMM   102.23     LegendNANA
20:00 1.4 -0.6 87 LegendMM LegendMM   102.24     LegendNANA
21:00 1.5 -0.5 87 LegendMM LegendMM   102.28     LegendNANA
22:00 1.3 -1.5 82 LegendMM LegendMM   102.28     LegendNANA
23:00 1.0 -1.7 82 LegendMM LegendMM   102.31     LegendNANA

Notes on Data Quality.

Legend

  • E = Estimated
  • M = Missing
  • NA = Not Available
  • ‡ = Partner data that is not subject to review by the National Climate Archives
Date modified: